• Processing (Info)

  • MPEC 2004-F87 : 2004 FH29

    The following Minor Planet Electronic Circular may be linked-to from your own Web pages, but must not otherwise be redistributed electronically.

    A form allowing access to any MPEC is at the bottom of this page.


    Read MPEC 2004-F86 Read MPEC 2004-F88


    M.P.E.C. 2004-F87                                Issued 2004 Mar. 30, 13:19 UT
    
         The Minor Planet Electronic Circulars contain information on unusual
             minor planets and routine data on comets.  They are published
       on behalf of Commission 20 of the International Astronomical Union by the
              Minor Planet Center, Smithsonian Astrophysical Observatory,
                              Cambridge, MA 02138, U.S.A.
    
             Supported in part by the Steven and Michele Kirsch Foundation
                 Prepared using the Tamkin Foundation Computer Network
    
                                  MPC@CFA.HARVARD.EDU
              URL http://cfa-www.harvard.edu/iau/mpc.html  ISSN 1523-6714
    
                                       2004 FH29
    
    Observations:
         K04F29H* C2004 03 29.62906 11 37 36.30 -35 33 09.5          18.1 R EF087E12
         K04F29H  C2004 03 29.64050 11 37 46.87 -35 32 36.1          18.2 R EF087E12
         K04F29H  C2004 03 29.65193 11 37 57.41 -35 32 00.5          17.7 R EF087E12
         K04F29H  C2004 03 29.66334 11 38 08.03 -35 31 24.9          18.0 R EF087E12
         K04F29H 1C2004 03 29.70235 11 38 44.90 -35 29 19.6          18.3 R EF087413
         K04F29H 1C2004 03 29.70374 11 38 46.26 -35 29 15.0          18.4 R EF087413
         K04F29H 1C2004 03 29.70513 11 38 47.58 -35 29 10.4          18.7 R EF087413
         K04F29H 1C2004 03 29.78463 11 40 06.08 -35 24 38.6          18.6 R EF087413
         K04F29H 1C2004 03 29.78603 11 40 07.46 -35 24 33.5          18.4 R EF087413
         K04F29H 1C2004 03 29.80045 11 40 22.28 -35 23 43.0          18.3 R EF087413
         K04F29H 1C2004 03 30.41859111 52 11.462-34 50 17.82         17.9 R EF087413
         K04F29H 1C2004 03 30.41986111 52 12.897-34 50 13.66         18.0 R EF087413
         K04F29H 1C2004 03 30.42112911 52 14.320-34 50 09.35         17.9 R EF087413
         K04F29H  C2004 03 30.42905 11 52 17.67 -34 49 19.4          17.2 R EF087474
         K04F29H  C2004 03 30.43183 11 52 20.86 -34 49 09.0          16.8 R EF087474
         K04F29H  C2004 03 30.43321 11 52 22.12 -34 49 04.3          17.1 R EF087474
         K04F29H  C2004 03 30.43455 11 52 23.66 -34 48 59.4          17.1 R EF087474
         K04F29H  C2004 03 30.43536 11 52 24.60 -34 48 56.3          17.1 R EF087474
    
    Observer details:
    413 Siding Spring.  Observer R. H. McNaught.  1.0-m f/8 reflector + CCD.
    474 Mount John Observatory, Lake Tekapo.  Observer A. C. Gilmore.  Measurer
        P. M. Kilmartin.  1.0-m f/7.7 reflector + CCD.
    E12 Siding Spring Survey.  Observers G. J. Garradd, S. Larson, E. Beshore,
        E. Christensen.  0.5-m Uppsala Schmidt + CCD.
    
    Orbital elements:
    2004 FH29
    Epoch 2004 Mar. 16.0 TT = JDT 2453080.5                 MPC
    M 340.87211              (2000.0)            P               Q
    n   0.46242432     Peri.   25.55918     -0.75754146     +0.65019081
    a   1.6561854      Node   195.43588     -0.63014359     -0.75161928
    e   0.4019493      Incl.   12.62234     -0.17044057     -0.11099718
    P   2.13           H   23.7           G   0.15
    From 18 observations 2004 Mar. 29-30.
    
    Ephemeris:
    2004 FH29                a,e,i = 1.66, 0.40, 13                  q = 0.9905
    Date    TT    R. A. (2000) Decl.     Delta      r     Elong.  Phase     V
    2004 03 26    10 55.31   -36 52.5    0.063    1.047   140.2    37.6    19.3
    2004 03 27    11 04.17   -36 42.0    0.058    1.044   141.2    36.8    19.1
    2004 03 28    11 14.88   -36 24.9    0.053    1.040   142.6    35.6    18.8
    2004 03 29    11 27.96   -35 57.7    0.047    1.037   144.3    34.2    18.6
    2004 03 30    11 44.10   -35 15.1    0.042    1.034   146.4    32.3    18.3
    2004 03 31    12 04.23   -34 08.3    0.037    1.031   149.0    30.0    17.9
    2004 04 01    12 29.48   -32 22.8    0.033    1.028   152.0    27.1    17.5
    2004 04 02    13 01.12   -29 35.5    0.028    1.025   155.1    24.2    17.1
    2004 04 03    13 40.09   -25 13.8    0.025    1.023   156.7    22.7    16.8
    2004 04 04    14 26.12   -18 44.6    0.022    1.020   153.9    25.5    16.6
    2004 04 05    15 16.71   -10 07.3    0.021    1.017   145.2    34.1    16.7
    2004 04 06    16 07.33   -00 29.8    0.021    1.015   133.1    46.1    17.1
    2004 04 07    16 53.45   +08 21.3    0.022    1.013   120.9    58.0    17.6
    2004 04 08    17 32.57   +15 21.3    0.025    1.011   110.7    67.9    18.1
    2004 04 09    18 04.42   +20 27.4    0.029    1.008   102.9    75.5    18.7
    2004 04 10    18 29.95   +24 04.7    0.033    1.006    97.0    81.1    19.2
    2004 04 11    18 50.40   +26 39.9    0.038    1.005    92.6    85.2    19.6
    2004 04 12    19 06.92   +28 32.8    0.043    1.003    89.3    88.3    20.0
    2004 04 13    19 20.42   +29 57.0    0.048    1.001    86.8    90.5    20.3
    2004 04 14    19 31.61   +31 01.2    0.053    1.000    84.8    92.1    20.6
    2004 04 15    19 41.01   +31 51.4    0.058    0.998    83.3    93.3    20.8
    2004 04 16    19 48.99   +32 31.3    0.064    0.997    82.2    94.2    21.1
    2004 04 17    19 55.85   +33 03.7    0.069    0.996    81.3    94.8    21.3
    2004 04 18    20 01.82   +33 30.3    0.074    0.995    80.6    95.2    21.4
    2004 04 19    20 07.05   +33 52.5    0.079    0.994    80.0    95.5    21.6
    2004 04 20    20 11.69   +34 11.3    0.085    0.993    79.6    95.6    21.7
    2004 04 21    20 15.83   +34 27.4    0.090    0.992    79.3    95.6    21.9
    2004 04 22    20 19.57   +34 41.2    0.096    0.992    79.1    95.5    22.0
    2004 04 23    20 22.95   +34 53.3    0.101    0.991    78.9    95.3    22.1
    2004 04 24    20 26.03   +35 03.8    0.106    0.991    78.9    95.1    22.2
    2004 04 25    20 28.87   +35 13.1    0.111    0.991    78.9    94.8    22.3
    
    Timothy B. Spahr             (C) Copyright 2004 MPC           M.P.E.C. 2004-F87
    

    Read MPEC 2004-F86 Read MPEC 2004-F88


    MPEC number:

    Enter an MPEC number in one of the following forms:

    • 1997-B01 (the full form)
    • J97B01 (the packed version of the full form)
    • B01 (the abbreviated form)